Location: Helsinki
(60.1699°N, 24.9384°E)
Time: 14:36:17
(UTC+02:00)

Transit 4A - Pass Details

Date: 31 October 2020
Orbit: 862 x 982 km, 66.8° (Epoch: 26 November)

Event Time Altitude Azimuth Distance (km) Brightness Sun altitude
Rises 21:23:20 0° 304° (WNW) 3,691 12.0 -35.8°
Reaches altitude 10° 21:25:55 10° 306° (NW) 2,746 11.1 -36.0°
Enters shadow 21:30:27 47° 321° (NW) 1,282 8.8 -36.5°
Maximum altitude 21:32:23 73° 32° (NNE) 1,029 - -36.6°
Drops below altitude 10° 21:38:46 10° 117° (ESE) 2,719 - -37.2°
Sets 21:41:20 0° 120° (ESE) 3,653 - -37.4°
